GIA009 WIOO-WIDD

Flight info

Callsign GIA009
Flight time N/A
Altitude 32000
Route BAVUS L504 OBDOS T22 UGEBO
Aircraft B738/M-SDE2E3FGHIRWXY/LB1

Departure

Time 2026-05-06 11:18
Airport Supadio International Airport (WIOO)

Arrival

Time N/A
Airport Hang Nadim International Airport (WIDD)
Time Latitude Longitude Altitude Speed Heading
2026-05-06 10:40 -0.14706 109.40389 31 ft 0 kts 68°
2026-05-06 11:04 -0.14712 109.40375 31 ft 4 kts 72°
2026-05-06 11:04 -0.14718 109.40349 31 ft 4 kts 85°
2026-05-06 11:05 -0.14717 109.40323 31 ft 4 kts 104°
2026-05-06 11:05 -0.14713 109.40310 29 ft 1 kts 109°
2026-05-06 11:05 -0.14713 109.40309 29 ft 0 kts 109°
2026-05-06 11:06 -0.14713 109.40310 29 ft 0 kts 109°
2026-05-06 11:07 -0.14714 109.40313 29 ft 2 kts 109°
2026-05-06 11:07 -0.14718 109.40326 31 ft 2 kts 105°
2026-05-06 11:07 -0.14720 109.40340 31 ft 2 kts 98°
2026-05-06 11:08 -0.14719 109.40347 31 ft 0 kts 75°
2026-05-06 11:09 -0.14721 109.40338 31 ft 2 kts 125°
2026-05-06 11:09 -0.14708 109.40331 31 ft 2 kts 159°
2026-05-06 11:10 -0.14705 109.40330 29 ft 0 kts 158°
2026-05-06 11:10 -0.14717 109.40335 31 ft 7 kts 158°
2026-05-06 11:11 -0.14803 109.40367 30 ft 16 kts 168°
2026-05-06 11:11 -0.14872 109.40323 31 ft 11 kts 212°
2026-05-06 11:11 -0.14946 109.40331 32 ft 11 kts 158°
2026-05-06 11:11 -0.15015 109.40360 32 ft 11 kts 157°
2026-05-06 11:12 -0.15091 109.40390 31 ft 13 kts 159°
2026-05-06 11:12 -0.15179 109.40427 31 ft 15 kts 158°
2026-05-06 11:12 -0.15278 109.40467 31 ft 16 kts 158°
2026-05-06 11:12 -0.15383 109.40510 30 ft 17 kts 158°
2026-05-06 11:13 -0.15428 109.40528 28 ft 0 kts 158°
2026-05-06 11:13 -0.15440 109.40533 29 ft 3 kts 158°
2026-05-06 11:13 -0.15469 109.40544 30 ft 6 kts 158°
2026-05-06 11:13 -0.15519 109.40564 29 ft 9 kts 158°
2026-05-06 11:14 -0.15582 109.40590 29 ft 11 kts 158°
2026-05-06 11:14 -0.15655 109.40621 29 ft 13 kts 157°
2026-05-06 11:14 -0.15746 109.40658 29 ft 16 kts 160°
2026-05-06 11:14 -0.15853 109.40701 28 ft 17 kts 158°
2026-05-06 11:15 -0.15942 109.40737 28 ft 12 kts 158°
2026-05-06 11:15 -0.15993 109.40756 29 ft 2 kts 136°
2026-05-06 11:15 -0.16013 109.40765 29 ft 6 kts 155°
2026-05-06 11:15 -0.16067 109.40788 30 ft 10 kts 158°
2026-05-06 11:16 -0.16131 109.40814 30 ft 7 kts 157°
2026-05-06 11:16 -0.16181 109.40835 28 ft 9 kts 154°
2026-05-06 11:16 -0.16226 109.40878 30 ft 10 kts 135°
2026-05-06 11:16 -0.16268 109.40897 31 ft 6 kts 194°
2026-05-06 11:17 -0.16278 109.40885 29 ft 1 kts 283°
2026-05-06 11:17 -0.16265 109.40872 31 ft 4 kts 321°
2026-05-06 11:17 -0.16252 109.40865 31 ft 0 kts 332°
2026-05-06 11:17 -0.16171 109.40830 30 ft 47 kts 338°
2026-05-06 11:18 -0.15595 109.40595 29 ft 129 kts 338°
2026-05-06 11:18 -0.14556 109.40184 162 ft 186 kts 338°
2026-05-06 11:18 -0.13290 109.39667 865 ft 204 kts 334°
2026-05-06 11:18 -0.12282 109.38652 1545 ft 210 kts 290°
2026-05-06 11:19 -0.12008 109.37238 2340 ft 206 kts 278°
2026-05-06 11:19 -0.11789 109.35832 3114 ft 204 kts 280°
2026-05-06 11:19 -0.11511 109.34412 3714 ft 212 kts 282°
2026-05-06 11:19 -0.11172 109.32951 4192 ft 224 kts 284°
2026-05-06 11:20 -0.10764 109.31400 4685 ft 238 kts 285°
2026-05-06 11:20 -0.10289 109.29751 5202 ft 252 kts 287°
2026-05-06 11:20 -0.09761 109.28031 5720 ft 267 kts 287°
2026-05-06 11:20 -0.09179 109.26224 6238 ft 281 kts 288°
2026-05-06 11:21 -0.08544 109.24315 6733 ft 295 kts 288°
2026-05-06 11:21 -0.07866 109.22327 7218 ft 309 kts 289°
2026-05-06 11:21 -0.07160 109.20257 7715 ft 321 kts 287°
2026-05-06 11:21 -0.06591 109.18076 8205 ft 331 kts 282°
2026-05-06 11:22 -0.06105 109.15794 8707 ft 341 kts 281°
2026-05-06 11:22 -0.05632 109.13437 9236 ft 345 kts 281°
2026-05-06 11:22 -0.05162 109.11093 9859 ft 346 kts 281°
2026-05-06 11:22 -0.04682 109.08744 10431 ft 350 kts 281°
2026-05-06 11:23 -0.04179 109.06321 11018 ft 352 kts 282°
2026-05-06 11:23 -0.03673 109.03918 11611 ft 355 kts 282°
2026-05-06 11:23 -0.03165 109.01531 12206 ft 357 kts 282°
2026-05-06 11:23 -0.02646 108.99106 12821 ft 359 kts 282°
2026-05-06 11:24 -0.02121 108.96664 13462 ft 362 kts 282°
2026-05-06 11:24 -0.01590 108.94195 14031 ft 364 kts 282°
2026-05-06 11:24 -0.01055 108.91716 14591 ft 366 kts 282°
2026-05-06 11:24 -0.00518 108.89225 15172 ft 368 kts 282°
2026-05-06 11:25 0.00022 108.86721 15752 ft 369 kts 282°
2026-05-06 11:25 0.00566 108.84203 16360 ft 371 kts 282°
2026-05-06 11:25 0.01111 108.81677 16966 ft 371 kts 282°
2026-05-06 11:25 0.01655 108.79157 17587 ft 372 kts 282°
2026-05-06 11:26 0.02201 108.76628 18204 ft 372 kts 282°
2026-05-06 11:26 0.02746 108.74101 18750 ft 371 kts 282°
2026-05-06 11:26 0.03290 108.71582 19300 ft 371 kts 282°
2026-05-06 11:26 0.03832 108.69067 19860 ft 370 kts 282°
2026-05-06 11:27 0.04377 108.66543 20436 ft 369 kts 282°
2026-05-06 11:27 0.04916 108.64047 21017 ft 368 kts 282°
2026-05-06 11:27 0.05457 108.61540 21613 ft 367 kts 282°
2026-05-06 11:27 0.05985 108.59092 22213 ft 365 kts 282°
2026-05-06 11:28 0.06518 108.56625 22824 ft 363 kts 282°
2026-05-06 11:28 0.07046 108.54175 23445 ft 360 kts 282°
2026-05-06 11:28 0.07573 108.51733 23975 ft 357 kts 282°
2026-05-06 11:28 0.08090 108.49337 24502 ft 353 kts 282°
2026-05-06 11:29 0.08603 108.46962 25039 ft 349 kts 282°
2026-05-06 11:29 0.09117 108.44583 25596 ft 345 kts 282°
2026-05-06 11:29 0.09622 108.42242 26166 ft 340 kts 282°
2026-05-06 11:29 0.10114 108.39959 26732 ft 334 kts 282°
2026-05-06 11:30 0.10600 108.37708 27298 ft 327 kts 282°